Location: ?????
(33.6267°N, 35.4675°E)
Time: 16:42:44
(UTC+00:00)

Cosmos 923 Rocket - Pass Details

Date: 12 November 2019
Orbit: 759 x 785 km, 74.0° (Epoch: 06 December)

Event Time Altitude Azimuth Distance (km) Brightness Sun altitude
Rises 15:47:00 0° 183° (S) 3,226 7.4 -14.7°
Reaches altitude 10° 15:49:25 10° 179° (S) 2,300 6.6 -15.2°
Maximum altitude 15:54:29 53° 103° (ESE) 935 4.1 -16.2°
Enters shadow 15:58:40 15° 30° (NNE) 1,975 5.8 -17.1°
